Location: Newark
(13.6797°N, 8.5297°E)
Time: 13:28:01
(UTC+00:00)

Courier 1B Rocket - Pass Details

Date: 27 January 2020
Orbit: 920 x 1202 km, 28.2° (Epoch: 25 February)

Event Time Altitude Azimuth Distance (km) Brightness Sun altitude
Rises 10:38:29 0° 279° (W) 4,021 8.0 54.6°
Reaches altitude 10° 10:41:49 10° 291° (WNW) 3,021 7.4 54.9°
Maximum altitude 10:48:04 29° 348° (NNW) 1,894 6.5 55.5°
Drops below altitude 10° 10:53:59 10° 46° (NE) 2,845 7.4 56.0°
Sets 10:57:02 0° 58° (ENE) 3,750 8.0 56.2°
